This is the latest recevied weather packets stored in our database for station/object S56WDN-10. If no packets are shown the sender has not sent any weather packets the latest 10 day(s).
| Time | Temp. | Humidity | Pressure | Rain* | Wind** | Luminosity | Snow |
|---|---|---|---|---|---|---|---|
| 1777932419 | 13.89° C | 57% | 1015.5 hPa | 0 mm | - | - | - |
| 1777932119 | 14.44° C | 56% | 1015.5 hPa | 0 mm | - | - | - |
| 1777931819 | 14.44° C | 55% | 1015.4 hPa | 0 mm | - | - | - |
| 1777931519 | 14.44° C | 54% | 1015.4 hPa | 0 mm | - | - | - |
| 1777931219 | 15° C | 54% | 1015.4 hPa | 0 mm | - | - | - |
| 1777930919 | 15° C | 53% | 1015.3 hPa | 0 mm | - | - | - |
| 1777930619 | 15.56° C | 53% | 1015.4 hPa | 0 mm | - | - | - |
| 1777930319 | 15.56° C | 51% | 1015.6 hPa | 0 mm | - | - | - |
| 1777930020 | 16.11° C | 51% | 1015.6 hPa | 0 mm | - | - | - |
| 1777929720 | 16.11° C | 51% | 1015.6 hPa | 0 mm | - | - | - |
| 1777929419 | 16.11° C | 50% | 1015.5 hPa | 0 mm | - | - | - |
| 1777929120 | 16.67° C | 50% | 1015.6 hPa | 0 mm | - | - | - |
| 1777928819 | 16.67° C | 50% | 1015.6 hPa | 0 mm | - | - | - |
| 1777928519 | 16.67° C | 50% | 1015.8 hPa | 0 mm | - | - | - |
| 1777928220 | 16.11° C | 51% | 1015.9 hPa | 0 mm | - | - | - |
| 1777927920 | 16.11° C | 51% | 1015.8 hPa | 0 mm | - | - | - |
| 1777927620 | 16.11° C | 51% | 1015.7 hPa | 0 mm | - | - | - |
| 1777927320 | 16.11° C | 51% | 1015.7 hPa | 0 mm | - | - | - |
| 1777927020 | 16.11° C | 50% | 1015.7 hPa | 0 mm | - | - | - |
| 1777926720 | 16.67° C | 50% | 1015.7 hPa | 0 mm | - | - | - |
| 1777926420 | 16.67° C | 50% | 1015.7 hPa | 0 mm | - | - | - |
| 1777926120 | 17.22° C | 49% | 1015.7 hPa | 0 mm | - | - | - |
| 1777925820 | 17.22° C | 48% | 1015.6 hPa | 0 mm | - | - | - |
| 1777925520 | 17.22° C | 48% | 1015.6 hPa | 0 mm | - | - | - |
| 1777925220 | 17.22° C | 48% | 1015.6 hPa | 0 mm | - | - | - |
* Rain latest hour (hover to see other rain measurements)
** Current wind speed in m/s (hover to see current wind gust speed)